User: anonymous   Login
Location: Kitchener
(43.2612°N, 80.5078°W)
Time: 12:02:47
(UTC+01:00)
Language:

Iridium 57 - Orbit

View from above orbital plane
View from above orbital plane
View from above satellite
View from above satellite

Ground track
Ground track

The orbit data is extracted from the following two-line orbital elements,

1 25273U 98019B   15064.59246136  .00000178  00000-0  56517-4 0  9992
2 25273 086.3928 276.1412 0001973 089.1568 270.9854 14.34216936886441
Epoch (UTC): 05 March 2015 14:13:08
Eccentricity: 0.0001973
inclination: 86.3928°
perigee height: 776 km
apogee height: 779 km
right ascension of ascending node: 276.1412°
argument of perigee: 89.1568°
revolutions per day: 14.34216936
mean anomaly at epoch: 270.9854°
orbit number at epoch: 88644

The dashed part of the orbit path shows where the satellite is in the earth's shadow,  

DLR